User: anonymous   Login
Location: Ferchesar
(52.6477°N, 12.4298°E)
Time: 07:15:21
(UTC+01:00)
Language:

Vanguard 2 Rocket - Orbit

View from above orbital plane
View from above orbital plane
View from above satellite
View from above satellite

Ground track
Ground track

The orbit data is extracted from the following two-line orbital elements,

1 00012U 59001B   21335.23605858  .00000624  00000-0  36967-3 0  9995
2 00012  32.9025 290.2300 1664070 352.0493   5.6498 11.44443556340907
Epoch (UTC): 01 December 2021 05:39:55
Eccentricity: 0.1664070
inclination: 32.9025°
perigee height: 555 km
apogee height: 3324 km
right ascension of ascending node: 290.2300°
argument of perigee: 352.0493°
revolutions per day: 11.44443556
mean anomaly at epoch: 5.6498°
orbit number at epoch: 34090

The dashed part of the orbit path shows where the satellite is in the earth's shadow,  

DLR